FW1898 Weather Reports


time (UTC)temp
C
wind
direction
speed
KPH
gust
KPH
rain 1hr
cm
rain 24hr
cm
rain mn
cm
humidity
%
barometer
mb
20260504045052 9 164 4.8 8.0 0.00 0.00 0.00 100 1117.3
20260504043055 8 159 6.4 9.7 0.00 0.00 0.00 100 1117.3
20260504041136 8 156 4.8 8.0 0.00 0.00 0.00 100 1117.5
20260504035240 8 213 1.6 3.2 0.00 0.00 0.00 100 1117.6
20260504034325 8 159 4.8 6.4 0.00 0.00 0.00 100 1117.6
20260504032438 8 252 0.0 3.2 0.00 0.00 0.00 100 1117.7
20260504031525 8 190 1.6 3.2 0.00 0.00 0.00 100 1117.9
20260504030540 9 185 3.2 6.4 0.00 0.00 0.00 100 1118.0
20260504025624 9 157 3.2 6.4 0.00 0.00 0.00 100 1118.1
20260504024642 9 164 4.8 8.0 0.00 0.00 0.00 100 1118.3
20260504022642 9 170 1.6 3.2 0.00 0.00 0.00 100 1118.3
20260504021739 9 166 1.6 4.8 0.00 0.00 0.00 100 1118.3
20260504020741 9 180 1.6 3.2 0.00 0.00 0.00 100 1118.2
20260504015740 9 196 4.8 9.7 0.00 0.00 0.00 100 1118.4
20260504014740 9 226 3.2 6.4 0.00 0.00 0.00 100 1118.5
20260504013742 9 169 4.8 9.7 0.00 0.00 0.00 100 1118.2
20260504012741 9 218 4.8 8.0 0.00 0.00 0.00 100 1118.4
20260504011741 9 219 3.2 6.4 0.00 0.00 0.00 100 1118.3
20260504005840 10 227 8.0 11.3 0.00 0.00 0.00 100 1118.7
20260504002940 10 239 12.9 17.7 0.00 0.00 0.00 100 1118.5
20260504000940 12 252 9.7 11.3 0.00 0.00 0.00 100 1118.3
20260504000039 12 218 12.9 25.7 0.00 0.00 0.00 100 1117.9
20260503235040 12 229 8.0 11.3 0.00 0.00 0.00 100 1118.0
20260503234139 13 224 9.7 16.1 0.00 0.00 0.00 100 1118.1
20260503233138 13 224 8.0 12.9 0.00 0.00 0.00 100 1118.1
20260503231142 13 215 12.9 20.9 0.00 0.00 0.00 100 1118.2
20260503230141 13 231 12.9 30.6 0.00 0.00 0.00 100 1118.4
20260503223140 13 236 17.7 32.2 0.00 0.00 0.00 100 1118.5
20260503222239 13 235 11.3 17.7 0.00 0.00 0.00 100 1118.6
20260503220239 13 226 19.3 30.6 0.00 0.00 0.00 100 1118.7
20260503215238 13 214 12.9 22.5 0.00 0.00 0.00 100 1118.7
20260503214240 13 230 9.7 12.9 0.00 0.00 0.00 100 1118.7
20260503213240 13 221 20.9 27.4 0.00 0.00 0.00 100 1118.9
20260503211340 14 236 11.3 14.5 0.00 0.00 0.00 100 1118.7
20260503210337 14 228 11.3 19.3 0.00 0.00 0.00 100 1118.9
20260503205340 14 213 11.3 17.7 0.00 0.00 0.00 100 1118.9
20260503204438 14 219 14.5 25.7 0.00 0.00 0.00 100 1119.0
20260503203440 14 246 12.9 17.7 0.00 0.00 0.00 100 1119.1
20260503202440 14 229 14.5 19.3 0.00 0.00 0.00 100 1119.2
20260503201440 14 220 12.9 16.1 0.00 0.00 0.00 100 1119.3
20260503200538 14 214 14.5 25.7 0.00 0.00 0.00 100 1119.5
20260503195539 14 231 9.7 14.5 0.00 0.00 0.00 100 1119.4
20260503194539 15 239 12.9 20.9 0.00 0.00 0.00 100 1119.7
20260503193623 15 221 11.3 17.7 0.00 0.00 0.00 100 1119.8
20260503192639 13 251 8.0 11.3 0.00 0.00 0.00 100 1120.0
20260503191638 13 222 14.5 22.5 0.00 0.00 0.00 100 1120.2
20260503190638 14 223 14.5 22.5 0.00 0.00 0.00 100 1120.2
20260503185640 13 231 11.3 16.1 0.00 0.00 0.00 100 1120.6
20260503183740 14 244 8.0 14.5 0.00 0.00 0.00 100 1120.8
20260503181839 13 223 12.9 22.5 0.00 0.00 0.00 100 1120.8
20260503180839 13 223 12.9 22.5 0.00 0.00 0.00 100 1121.2
20260503175839 13 264 9.7 17.7 0.00 0.00 0.00 100 1121.1
20260503173841 13 247 9.7 14.5 0.00 0.00 0.00 100 1121.2
20260503172840 13 239 14.5 20.9 0.00 0.00 0.00 100 1121.5
20260503171939 13 208 14.5 24.1 0.00 0.00 0.00 100 1121.5
20260503171039 13 227 11.3 19.3 0.00 0.00 0.00 100 1121.8
20260503150438 10 222 12.9 19.3 0.00 0.00 0.00 100 1122.8
20260503130938 7 215 8.0 11.3 0.00 0.00 0.00 100 1123.2
20260503100240 1 202 1.6 4.8 0.00 0.00 0.00 100 1121.1
20260503080639 2 232 3.2 3.2 0.00 0.00 0.00 100 1121.4
20260503072639 2 231 4.8 6.4 0.00 0.00 0.00 100 1121.2
20260503071636 2 247 4.8 6.4 0.00 0.00 0.00 100 1121.5
20260503070638 2 225 3.2 4.8 0.00 0.00 0.00 100 1121.3
20260503070538 2 225 3.2 4.8 0.00 0.00 0.00 100 1121.3